Location: Newark
(48.6461°N, 4.3644°W)
Time: 13:25:22
(UTC+00:00)

Transit 4A - Pass Details

Date: 26 January 2020
Orbit: 872 x 973 km, 66.8° (Epoch: 26 February)

Event Time Altitude Azimuth Distance (km) Brightness Sun altitude
Rises 06:11:56 0° 193° (SSW) 3,545 10.9 -16.9°
Reaches altitude 10° 06:14:33 10° 187° (S) 2,591 10.3 -16.5°
Maximum altitude 06:20:15 46° 116° (ESE) 1,181 8.9 -15.6°
Drops below altitude 10° 06:25:50 10° 45° (NE) 2,551 10.6 -14.7°
Sets 06:28:23 0° 39° (NE) 3,485 11.3 -14.3°
